Location: Bainghen
(50.7525°N, 1.9073°E)
Time: 23:26:49
(UTC+00:00)

Daily predictions for brighter satellites

Satellite Brightness Start Highest point End
(mag) Time Altitude Azimuth Time Altitude Azimuth Time Altitude Azimuth
USA 267 3.4 17:32:03 10° ENE 17:38:37 73° SE 17:45:09 10° SW
CARTOSAT-1 4.4 17:35:33 10° SE 17:39:08 28° ENE 17:42:44 10° N
MOS 1 Rocket 4.2 17:35:16 10° S 17:39:34 50° W 17:43:46 10° NNW
Cosmos 2082 Rocket 4.5 17:38:10 10° NW 17:41:05 14° NNW 17:44:00 10° N
AQUARIUS 4.3 17:36:55 10° SSE 17:41:20 82° WSW 17:45:46 10° NNW
ARIANE 6 FM1 Upper Stage 3.8 17:38:28 10° NNW 17:41:47 25° NNE 17:45:06 10° E
Radarsat Rocket 4.3 17:36:47 10° SE 17:42:29 50° ENE 17:48:41 10° N
Cosmos 2242 Rocket 4.1 17:38:31 10° SSW 17:42:51 64° WNW 17:47:13 10° N
Meteor 1-11 4.2 17:38:03 10° S 17:43:41 76° E 17:49:27 10° NNE
Cosmos 2292 Rocket 3.5 17:40:54 10° SSW 17:43:46 55° WNW 17:47:01 10° N
CZ-2D R/B 3.1 17:43:16 10° S 17:46:19 68° WSW 17:49:22 10° NNW
Cosmos 2297 Rocket 2.6 17:41:24 10° S 17:46:41 42° ESE 17:51:59 10° NE
Cosmos 2016 Rocket 4.3 17:40:36 10° NNW 17:46:51 75° W 17:53:09 10° S
SAR-Lupe-5 3.9 17:50:55 10° NNE 17:53:24 77° ESE 17:55:50 10° SSW
NOSS 0 Rocket 4.4 17:48:17 10° NW 17:54:31 70° WSW 18:00:42 10° SSE
Cosmos 1814 Rocket 4.5 17:51:05 10° SW 17:56:19 65° WNW 18:01:32 10° NNE
SPOT 5 4.4 17:53:08 10° E 17:56:19 17° NE 17:59:36 10° NNE
Tiangong 0.4 17:56:25 10° S 17:57:42 12° SSE 17:58:59 10° SE
Cosmos 1867 4.3 17:52:30 10° WSW 17:57:50 53° NW 18:03:12 10° NE
Cosmos 158 Rocket 4.3 17:53:05 10° SW 17:57:54 64° WNW 18:02:47 10° NNE
SeaSat 1 2.6 17:53:05 10° SSE 17:57:59 79° WSW 18:02:55 10° NNW
SJ-6B 3.8 17:56:27 10° ESE 17:59:01 20° ENE 18:01:35 10° NNE
Cosmos 2233 Rocket 4.2 17:54:24 10° NNW 18:00:42 79° W 18:07:00 10° S
Meteor 2-1 Rocket 4.4 17:56:35 10° NNW 18:02:25 84° W 18:08:20 10° S
IRS-P3 4.4 17:57:13 10° SSE 18:02:33 76° WSW 18:07:55 10° NNW
Cosmos 1125 Rocket 3.8 17:57:54 10° NNW 18:03:05 74° WSW 18:08:16 10° SSE
Cosmos 2228 3.7 17:59:46 10° N 18:03:29 30° ENE 18:07:13 10° SE
PSLV R/B 3.6 17:59:50 10° SE 18:03:47 47° ENE 18:07:43 10° N
Cosmos 1356 Rocket 4.4 18:00:11 10° NNW 18:04:00 49° W 18:07:51 10° S
Cosmos 2285 Rocket 4.1 17:57:45 10° NNW 18:04:14 88° WSW 18:10:38 10° SSE
COSMO-SKYMED 1 2.8 18:00:47 10° NNE 18:04:42 41° E 18:08:36 10° S
NOSS 3-3 (C) 3.7 18:00:11 10° SW 18:05:27 82° SE 18:11:52 10° NE
Meteor 1-31 Rocket 4.3 18:06:27 13° ENE 18:06:42 13° ENE 18:08:27 10° NNE
Cosmos 1570 Rocket 4.3 18:02:25 10° S 18:07:27 47° ESE 18:12:29 10° NNE
CZ-2D R/B 3.3 18:04:41 10° SSE 18:08:36 71° ENE 18:12:38 10° N
Cosmos 2344 4.4 18:03:11 10° SSE 18:09:16 25° ESE 18:14:28 11° ENE
Cosmos 1455 Rocket 3.0 18:07:05 10° N 18:11:21 60° ENE 18:15:35 10° SSE
YAOGAN 1 2.5 18:08:30 10° SSE 18:12:45 89° E 18:17:03 10° NNW
Cosmos 1607 4.3 18:07:31 10° SW 18:13:37 66° NW 18:19:49 10° NE
Cosmos 2263 Rocket 3.4 18:09:44 10° SE 18:13:40 20° E 18:16:42 13° ENE
Cosmos 1980 3.9 18:09:04 10° NNW 18:14:45 77° WSW 18:20:22 10° SSE
Cosmos 1975 Rocket 3.8 18:11:12 10° SSE 18:15:00 30° E 18:18:47 10° NNE
USA 234 4.1 18:10:43 10° SSE 18:17:03 51° SW 18:23:26 10° WNW
Cosmos 2237 Rocket 2.4 18:14:14 10° NNW 18:19:55 76° WSW 18:25:35 10° SSE
SJ-7 4.0 18:20:06 10° SSE 18:23:47 86° ENE 18:27:28 10° NNW
Cosmos 773 Rocket 4.2 18:18:49 10° S 18:23:53 50° ESE 18:28:59 10° NNE
DNEPR-1 R/B 3.9 18:19:22 10° NW 18:24:08 73° NE 18:29:52 10° SE
Spot 4 Rocket 4.0 18:19:24 10° SSE 18:24:30 90° E 18:29:39 10° NNW
NOAA 6 4.0 18:20:28 10° SSE 18:25:36 77° ENE 18:30:47 10° NNW
Okean 1 Rocket 4.1 18:23:25 10° NNW 18:27:41 50° W 18:31:53 10° SSW
ARIANE 5 R/B 4.5 18:24:45 10° SSW 18:29:19 33° W 18:33:52 10° NNW
Meteor 1-27 4.2 18:23:43 10° NNW 18:29:32 84° ENE 18:35:23 10° SSE
Cosmos 2208 Rocket 4.1 18:24:45 10° S 18:29:49 52° ESE 18:35:00 10° NNE
Terra 3.6 18:31:23 14° NE 18:31:23 14° NE 18:33:24 10° NNE
NOSS 3-3 (A) 4.1 18:26:36 10° WSW 18:31:54 66° NW 18:38:23 10° NE
CRYOSAT 2 4.3 18:28:36 10° N 18:33:27 61° E 18:38:17 10° S
Meteor 2-17 Rocket 4.4 18:30:26 10° S 18:36:22 61° E 18:42:19 10° NNE
Cosmos 44 Rocket 3.4 18:33:52 10° SSW 18:38:43 61° SE 18:42:35 17° NE
Cosmos 1346 Rocket 3.2 18:35:40 10° SSE 18:38:56 33° E 18:40:09 26° NE
Cosmos 2221 Rocket 4.4 18:36:12 10° SSW 18:40:36 54° WNW 18:45:03 10° N
Cosmos 1025 Rocket 4.4 18:37:36 10° SW 18:41:41 41° WNW 18:45:49 10° N
Cosmos 1464 Rocket 4.0 18:35:53 10° N 18:42:16 70° ENE 18:48:32 10° SSE
Cosmos 1602 2.8 18:39:50 10° S 18:42:32 55° E 18:43:14 40° NE
CZ-4C R/B 2.8 18:38:47 10° WSW 18:43:10 47° NNW 18:48:41 11° NE
Cosmos 836 Rocket 4.5 18:40:08 10° SSW 18:45:25 86° ESE 18:50:45 10° NNE
Cosmos 2227 Rocket 2.3 18:40:35 10° S 18:46:02 52° ESE 18:51:30 10° NE
SL-16 R/B 2.2 18:40:57 10° NNW 18:46:35 59° NE 18:50:49 18° SE
Helios 1A Rocket 4.3 18:49:53 17° SSE 18:49:53 17° SSE 18:50:51 10° SSE
NOSS 3-4 (A) 4.2 18:43:44 10° NW 18:50:23 68° SW 18:58:13 10° SSE
NOSS 3-4 (C) 4.1 18:44:01 10° NW 18:50:41 69° SW 18:58:32 10° SSE
Aureole 3 Rocket 4.4 18:49:20 10° NNW 18:52:49 33° W 18:55:43 10° SSW
Cosmos 2150 Rocket 4.1 18:48:49 10° NNW 18:53:59 76° WSW 18:59:05 10° SSE
ATLAS CENTAUR R/B 3.0 18:54:23 10° N 18:54:54 12° N 18:54:54 12° N
Cosmos 2298 Rocket 4.2 18:52:44 10° NNW 18:58:02 75° WSW 19:03:18 10° SSE
Lacrosse 5 rocket 2.3 18:57:17 10° WNW 19:00:26 29° N 19:01:16 26° NNE
CZ-4 R/B 2.3 19:02:50 28° NNE 19:02:50 28° NNE 19:05:07 10° N
Resurs 01 Rocket 2.2 19:00:25 10° S 19:04:45 59° W 19:09:08 10° NNW
Cosmos 1782 2.5 19:02:46 10° NNW 19:06:23 81° W 19:09:32 13° S
BREEZE-M DEB (TANK) 4.5 19:02:52 10° SSW 19:07:07 37° SE 19:11:13 27° E
ATLAS 2AS CENTAUR R/B 4.0 19:02:15 10° WNW 19:08:00 27° N 19:11:46 17° NE
CZ-4B R/B 3.6 19:12:00 36° ENE 19:12:10 36° ENE 19:16:59 10° N
CSL-04 Debris 4.1 19:12:12 25° SE 19:15:22 63° ENE 19:20:45 10° N
CZ-4B DEB 4.2 19:14:53 37° ESE 19:16:47 55° ENE 19:22:06 10° N
ERS-1 Rocket 3.6 19:20:01 36° NE 19:20:01 36° NE 19:23:56 10° N
CSL-04 Rocket 3.5 19:17:14 23° SSE 19:20:33 74° ENE 19:25:50 10° NNW
ARIANE 6 FM1 Upper Stage 2.4 19:17:17 10° NW 19:21:15 86° SW 19:21:31 77° SSE
USA 267 3.6 19:17:49 26° NE 19:21:35 61° NNW 19:28:00 10° W
RESURS DK-1 3.6 19:22:22 10° NNW 19:24:45 28° N 19:24:45 28° N
Cosmos 2297 Rocket 3.3 19:25:24 10° WSW 19:30:45 42° NW 19:36:08 10° NNE
Cosmos 2058 4.0 19:27:50 10° S 19:29:54 30° SSW 19:29:54 30° SSW
SJ-6B 4.1 19:29:01 10° SSW 19:32:11 34° W 19:35:23 10° NNW
Cosmos 1943 3.3 19:27:42 10° NNW 19:33:20 54° NE 19:33:43 53° ENE
SPOT 5 2.8 19:31:23 35° SSE 19:33:30 90° E 19:38:40 10° NNW
Tiangong 0.7 19:31:51 10° SW 19:32:34 13° SSW 19:32:34 13° SSW
Tsikada Rocket 3.8 19:29:39 10° S 19:35:43 65° E 19:41:51 10° NNE
Okean O Rocket 3.8 19:39:03 14° NNE 19:39:03 14° NNE 19:39:52 10° N
MOS 1 4.2 19:38:44 59° E 19:39:13 62° ENE 19:44:50 10° N
Meteor 1-31 Rocket 3.7 19:40:27 38° NW 19:40:27 38° NW 19:42:47 10° NNW
Cosmos 1544 Rocket 4.1 19:39:52 10° NNW 19:44:08 55° W 19:46:04 29° SSW
Cosmos 2219 3.7 19:41:28 10° S 19:45:34 44° SSE 19:45:34 44° SSE
ADEOS 3.6 19:53:50 66° NNE 19:53:50 66° NNE 19:58:27 10° NNW
Cosmos 2263 Rocket 2.2 19:51:12 10° SSW 19:56:54 82° WNW 19:58:28 50° NNE
Cosmos 1634 Rocket 4.0 20:00:53 10° NNW 20:07:13 78° W 20:09:11 47° S
Feng Yun 1-1 Rocket 4.5 20:06:21 54° SSW 20:07:41 73° WSW 20:13:38 10° NNW
Terra 3.1 20:10:00 31° N 20:10:00 31° N 20:12:30 10° NNW
PAYLOAD B 4.4 20:08:30 65° SSW 20:09:09 73° WSW 20:14:47 10° NNW
Cosmos 972 Rocket 4.4 20:10:38 10° NNW 20:15:24 58° W 20:15:24 58° W
Cosmos 2344 3.4 20:15:07 10° SW 20:22:45 80° NW 20:24:33 55° NNE
Cosmos 2279 Rocket 4.1 20:21:56 10° NNW 20:27:37 72° NW 20:27:37 72° NW
Cosmos 2227 Rocket 3.6 20:25:10 10° WSW 20:30:19 35° NW 20:33:22 21° N
SL-16 R/B 3.9 20:25:36 10° NW 20:30:19 28° WSW 20:32:45 20° SW
CZ-4C R/B 3.9 20:28:28 10° WNW 20:32:51 25° N 20:33:37 25° N
CZ-4 R/B 4.1 20:37:50 15° NW 20:37:50 15° NW 20:38:48 10° NW
Lacrosse 5 rocket 4.3 20:34:25 10° NW 20:34:41 12° NW 20:34:41 12° NW
CZ-4B R/B 4.5 20:53:50 36° WNW 20:53:50 36° WNW 20:57:41 10° NNW
ATLAS 2AS CENTAUR R/B 3.8 20:54:21 10° NW 20:59:11 35° N 20:59:11 35° N
USA 267 3.9 21:05:09 49° NNW 21:05:09 49° NNW 21:10:27 10° WNW
Cosmos 2263 Rocket 4.5 21:37:19 10° W 21:40:15 20° WNW 21:40:15 20° WNW
